(131915) = 2002 BB18

Discovered at Socorro on 2002-01-21 by LINEAR.

Orbit

Orbit type: Main Belt

Note: WebGL enabled browser required.

epoch2024-03-31.0
epoch JD2460400.5
perihelion date2022-11-09.74055
perihelion JD2459893.24055
argument of perihelion (°)36.65582
ascending node (°)135.03863
inclination (°)5.68339
eccentricity0.0114938
perihelion distance (AU)2.2352817
Tisserand w.r.t. Jupiter3.6
ΔV w.r.t. Earth (km/sec)9.4
semimajor axis (AU)2.2612725
mean anomaly (°)147.02956
mean daily motion (°/day)0.28985080
aphelion distance (AU)2.287
period (years)3.4
P-vector [x]-0.98743807
P-vector [y]0.11091976
P-vector [z]0.11252935
Q-vector [x]-0.14166534
Q-vector [y]-0.93690120
Q-vector [z]-0.31960456
absolute magnitude16.53
phase slope0.15
uncertainty0
referenceMPEC 2024-C115
observations used865
oppositions18
arc length (days)9376
first opposition used1997
last opposition used2023
residual rms (arc-secs)0.74
perturbers coarse indicatorM-v
perturbers precise indicator003Ek
first observation date used1997-11-06.0
last observation date used2023-07-09.0
computer nameMPCLINUX
JD of orbit computation2456966.754685
perihelion JD uncertainty (days)4.8120E-04
argument of perihelion uncertainty (°)1.4296E-04
ascending node uncertainty (°)3.1761E-05
inclination uncertainty (°)3.5271E-06
eccentricity uncertainty 3.4735E-08
perihelion distance uncertainty (AU)8.0127E-08
Minimum Orbit Intersection Distances (in AU)
for orbit epoch: 2460200.5, reference: E2024-CB5
Mercury1.79395
Venus1.51599
Earth1.24256
Mars0.57091
Jupiter2.6725
Saturn6.79774
Uranus16.212
Neptune27.5605

Observations

881 total observations over interval: 1992 03 03.20000 – 2023 07 09.228412
These data are available for download (format description).

Date (UT) J2000 RA J2000 Dec Magn Location Ref
1992 03 03.20000 11 10 21.08 +10 37 11.1   809 – European Southern Observatory, La Silla MPS 52581
1997 11 06.14379 02 58 36.29 +06 29 19.7 19.9   704 – Lincoln Laboratory ETS, New Mexico MPS 52581
1997 11 06.18393 02 58 33.70 +06 29 07.6   704 – Lincoln Laboratory ETS, New Mexico MPS 52581
1997 11 06.20380 02 58 32.40 +06 29 02.6   704 – Lincoln Laboratory ETS, New Mexico MPS 52581
1997 11 06.22376 02 58 31.18 +06 28 56.1 20.1   704 – Lincoln Laboratory ETS, New Mexico MPS 52581
1999 03 20.354670 13 19 41.695 +00 22 53.30 19.62 V 645 – Apache Point-Sloan Digital Sky Survey MPS 80051
1999 03 20.358142 13 19 41.536 +00 22 54.98 20.60   645 – Apache Point-Sloan Digital Sky Survey MPS 80051
1999 03 21.351437 13 18 58.154 +00 30 54.89 19.57 V 645 – Apache Point-Sloan Digital Sky Survey MPS 213605
1999 03 21.354909 13 18 57.992 +00 30 56.62 20.48   645 – Apache Point-Sloan Digital Sky Survey MPS 213605
1999 03 22.348240 13 18 13.383 +00 38 58.95 19.22 V 645 – Apache Point-Sloan Digital Sky Survey MPS 163707
1999 03 22.351712 13 18 13.213 +00 39 00.64 20.22   645 – Apache Point-Sloan Digital Sky Survey MPS 163707
2000 08 29.34062 23 22 19.50 -09 07 47.3 18.7   704 – Lincoln Laboratory ETS, New Mexico MPS 52581
2000 08 29.35402 23 22 18.81 -09 07 54.6 18.6   704 – Lincoln Laboratory ETS, New Mexico MPS 52581
2000 08 29.38093 23 22 17.42 -09 08 08.3 19.9   704 – Lincoln Laboratory ETS, New Mexico MPS 52581
2000 09 03.299860 23 18 03.921 -09 50 47.09 20.11 V 645 – Apache Point-Sloan Digital Sky Survey MPS 80051
2000 09 03.303332 23 18 03.728 -09 50 48.88 21.13   645 – Apache Point-Sloan Digital Sky Survey MPS 80051
2000 09 24.25514 22 59 51.57 -12 31 00.3 19.0   704 – Lincoln Laboratory ETS, New Mexico MPS 52581
2000 09 24.27077 22 59 50.87 -12 31 06.9 19.4   704 – Lincoln Laboratory ETS, New Mexico MPS 52581
2000 09 24.28541 22 59 50.25 -12 31 12.1 19.2   704 – Lincoln Laboratory ETS, New Mexico MPS 52581
2000 09 24.30056 22 59 49.48 -12 31 17.1 19.8   704 – Lincoln Laboratory ETS, New Mexico MPS 52581
2000 09 24.31542 22 59 48.66 -12 31 22.4 19.6   704 – Lincoln Laboratory ETS, New Mexico MPS 52581
2002 01 07.32852 09 23 50.93 +13 36 03.9 18.9 R 699 – Lowell Observatory-LONEOS MPS 50060
2002 01 07.35599 09 23 50.10 +13 36 13.5   699 – Lowell Observatory-LONEOS MPS 50060
2002 01 07.38351 09 23 48.96 +13 36 22.1   699 – Lowell Observatory-LONEOS MPS 50060
2002 01 07.41109 09 23 48.04 +13 36 31.6   699 – Lowell Observatory-LONEOS MPS 50060
2002 01 13.41018 09 19 57.60 +14 10 23.1 19.2   704 – Lincoln Laboratory ETS, New Mexico MPS 50060
2002 01 13.42537 09 19 56.89 +14 10 29.1 19.2   704 – Lincoln Laboratory ETS, New Mexico MPS 50060
2002 01 13.44057 09 19 56.20 +14 10 35.2 19.3   704 – Lincoln Laboratory ETS, New Mexico MPS 50060
2002 01 21.23944 09 13 33.13 +15 02 33.4 18.9   704 – Lincoln Laboratory ETS, New Mexico MPS 47553
2002 01 21.26905 09 13 31.41 +15 02 45.9 18.8   704 – Lincoln Laboratory ETS, New Mexico MPS 47553
2002 01 21.28396 09 13 30.55 +15 02 51.2 19.4   704 – Lincoln Laboratory ETS, New Mexico MPS 47553
2002 01 21.29877 09 13 29.75 +15 02 58.3 19.0   704 – Lincoln Laboratory ETS, New Mexico MPS 47553
2002 01 22.23951 09 12 38.32 +15 09 42.3 18.1   704 – Lincoln Laboratory ETS, New Mexico MPS 47553
2002 01 22.25441 09 12 37.47 +15 09 49.5 19.0   704 – Lincoln Laboratory ETS, New Mexico MPS 47553
2002 01 22.29917 09 12 34.86 +15 10 09.0 19.0   704 – Lincoln Laboratory ETS, New Mexico MPS 47553
2002 01 23.30936 09 11 38.50 +15 17 29.0 18.3   704 – Lincoln Laboratory ETS, New Mexico MPS 50060
2002 01 23.32675 09 11 37.43 +15 17 37.3 19.3   704 – Lincoln Laboratory ETS, New Mexico MPS 50060
2002 01 23.34208 09 11 36.52 +15 17 44.5 18.7   704 – Lincoln Laboratory ETS, New Mexico MPS 50060
2002 01 23.35790 09 11 35.60 +15 17 50.5 18.5   704 – Lincoln Laboratory ETS, New Mexico MPS 50060
2002 01 25.30733 09 09 44.12 +15 32 12.0 18.7   704 – Lincoln Laboratory ETS, New Mexico MPS 47553
2002 01 25.32219 09 09 43.26 +15 32 18.4 18.8   704 – Lincoln Laboratory ETS, New Mexico MPS 47553
2002 01 25.33715 09 09 42.32 +15 32 25.5 18.9   704 – Lincoln Laboratory ETS, New Mexico MPS 47553
2002 01 25.35198 09 09 41.46 +15 32 31.8 18.8   704 – Lincoln Laboratory ETS, New Mexico MPS 47553
2002 01 25.36681 09 09 40.58 +15 32 38.6 18.9   704 – Lincoln Laboratory ETS, New Mexico MPS 47553
2002 01 26.24674 09 08 49.43 +15 39 11.8 18.7   704 – Lincoln Laboratory ETS, New Mexico MPS 47553
2002 01 26.26202 09 08 48.46 +15 39 19.2 18.4   704 – Lincoln Laboratory ETS, New Mexico MPS 47553
2002 01 26.27766 09 08 47.55 +15 39 26.3 18.9   704 – Lincoln Laboratory ETS, New Mexico MPS 47553
2002 01 26.29295 09 08 46.61 +15 39 33.9 18.1   704 – Lincoln Laboratory ETS, New Mexico MPS 47553
2002 01 26.35918 09 08 42.67 +15 40 02.5 19.5   644 – Palomar Mountain/NEAT MPS 47553
2002 01 26.37452 09 08 41.71 +15 40 09.3 19.1   644 – Palomar Mountain/NEAT MPS 47553
2002 01 26.38956 09 08 40.81 +15 40 16.1 19.5   644 – Palomar Mountain/NEAT MPS 47553
2002 02 05.29690 08 58 37.56 +16 55 27.1 19.5   644 – Palomar Mountain/NEAT MPS 50060
2002 02 05.31791 08 58 36.17 +16 55 36.2 20.0   644 – Palomar Mountain/NEAT MPS 50060
2002 02 05.33908 08 58 34.87 +16 55 46.4 19.3   644 – Palomar Mountain/NEAT MPS 50060
2002 02 07.14926 08 56 44.20 +17 09 20.4 19.1 V 333 – Desert Eagle Observatory MPS 50060
2002 02 07.17567 08 56 42.67 +17 09 32.7 19.8 V 333 – Desert Eagle Observatory MPS 50060
2002 02 07.20198 08 56 41.03 +17 09 43.3 19.3 V 333 – Desert Eagle Observatory MPS 50060
2002 02 07.31235 08 56 34.00 +17 10 35.5 19.3   704 – Lincoln Laboratory ETS, New Mexico MPS 50060
2002 02 07.32679 08 56 33.06 +17 10 41.5 19.2   704 – Lincoln Laboratory ETS, New Mexico MPS 50060
2002 02 07.35565 08 56 31.24 +17 10 54.8 19.1   704 – Lincoln Laboratory ETS, New Mexico MPS 50060
2002 02 07.37024 08 56 30.35 +17 11 01.3 19.4   704 – Lincoln Laboratory ETS, New Mexico MPS 50060
2002 02 07.51948 08 56 21.17 +17 12 09.7 20.9   608 – Haleakala-AMOS MPS 50060
2002 02 07.52988 08 56 20.51 +17 12 13.5 21.0   608 – Haleakala-AMOS MPS 50060
2002 02 07.54085 08 56 19.79 +17 12 18.7 20.3   608 – Haleakala-AMOS MPS 50060
2002 02 08.23059 08 55 38.21 +17 17 23.9 19.9   704 – Lincoln Laboratory ETS, New Mexico MPS 50060
2002 02 08.24484 08 55 37.39 +17 17 29.3 19.9   704 – Lincoln Laboratory ETS, New Mexico MPS 50060
2002 02 08.25916 08 55 36.62 +17 17 35.8 20.1   704 – Lincoln Laboratory ETS, New Mexico MPS 50060
2002 02 08.28782 08 55 34.75 +17 17 48.5 20.3   704 – Lincoln Laboratory ETS, New Mexico MPS 50060
2002 02 08.32831 08 55 32.15 +17 18 06.4 19.3 V 691 – Steward Observatory, Kitt Peak-Spacewatch MPS 50060
2002 02 08.35142 08 55 30.73 +17 18 17.1 18.9 V 691 – Steward Observatory, Kitt Peak-Spacewatch MPS 50060
2002 02 08.37384 08 55 29.28 +17 18 26.3 19.3 V 691 – Steward Observatory, Kitt Peak-Spacewatch MPS 50060
2002 02 10.23540 08 53 37.86 +17 32 04.4 19.3   704 – Lincoln Laboratory ETS, New Mexico MPS 50060
2002 02 10.24954 08 53 37.02 +17 32 10.6 19.4   704 – Lincoln Laboratory ETS, New Mexico MPS 50060
2002 02 10.26659 08 53 35.86 +17 32 18.9 19.8   704 – Lincoln Laboratory ETS, New Mexico MPS 50060
2002 02 10.28073 08 53 35.07 +17 32 24.2 19.4   704 – Lincoln Laboratory ETS, New Mexico MPS 50060
2002 02 10.29688 08 53 34.04 +17 32 31.1 19.3   704 – Lincoln Laboratory ETS, New Mexico MPS 50060
2002 02 12.23741 08 51 40.19 +17 46 24.5 19.1   704 – Lincoln Laboratory ETS, New Mexico MPS 50060
2002 02 12.25165 08 51 39.36 +17 46 30.6 19.1   704 – Lincoln Laboratory ETS, New Mexico MPS 50060
2002 02 12.26587 08 51 38.51 +17 46 36.9 19.0   704 – Lincoln Laboratory ETS, New Mexico MPS 50060
2002 02 12.28034 08 51 37.62 +17 46 43.1 19.2   704 – Lincoln Laboratory ETS, New Mexico MPS 50060
2002 02 12.29456 08 51 36.76 +17 46 48.9 19.3   704 – Lincoln Laboratory ETS, New Mexico MPS 50060
2004 12 18.29033 04 37 25.06 +13 37 35.4 19.4   704 – Lincoln Laboratory ETS, New Mexico MPS 122670
2004 12 18.30519 04 37 24.07 +13 37 37.9 20.0   704 – Lincoln Laboratory ETS, New Mexico MPS 122670
2004 12 18.32383 04 37 22.96 +13 37 36.9 20.1   704 – Lincoln Laboratory ETS, New Mexico MPS 122670
